EN

Hourly Weather Bolshie Selischi

Today, 20 October, Tuesday

Time Temperature Precipitation Wind Pressure Humidity
00:00 +1°C° 0.1 mm 6 mps 743 mmHg 82%
01:00 +1°C° 0.1 mm 5 mps 743 mmHg 82%
02:00 0°C° 0 mm 5 mps 743 mmHg 82%
03:00 0°C° 0 mm 5 mps 743 mmHg 85%
04:00 0°C° 0 mm 4 mps 743 mmHg 88%
05:00 0°C° 0 mm 4 mps 743 mmHg 91%
06:00 0°C° 0.6 mm 5 mps 744 mmHg 91%
07:00 0°C° 0.6 mm 5 mps 744 mmHg 92%
08:00 0°C° 0 mm 5 mps 744 mmHg 93%
09:00 0°C° 0.5 mm 5 mps 744 mmHg 92%
10:00 0°C° 0.5 mm 4 mps 745 mmHg 91%
11:00 0°C° 0.5 mm 4 mps 745 mmHg 89%
12:00 +1°C° 0.1 mm 4 mps 746 mmHg 85%
13:00 +1°C° 0.1 mm 4 mps 747 mmHg 82%
14:00 +1°C° 0.1 mm 5 mps 747 mmHg 78%
15:00 +1°C° 0 mm 4 mps 748 mmHg 80%
16:00 0°C° 0 mm 4 mps 748 mmHg 82%
17:00 0°C° 0 mm 3 mps 749 mmHg 83%
18:00 0°C° 0 mm 3 mps 750 mmHg 85%
19:00 -1°C° 0 mm 3 mps 750 mmHg 87%
20:00 -1°C° 0 mm 3 mps 751 mmHg 89%
21:00 -1°C° 0 mm 3 mps 751 mmHg 90%
22:00 -1°C° 0 mm 3 mps 751 mmHg 91%
23:00 -1°C° 0 mm 3 mps 751 mmHg 91%

Tomorrow, 21 October, Wednesday

Time Temperature Precipitation Wind Pressure Humidity
00:00 -2°C° 0 mm 3 mps 752 mmHg 92%
01:00 -2°C° 0 mm 3 mps 752 mmHg 92%
02:00 -2°C° 0 mm 3 mps 752 mmHg 92%
03:00 -2°C° 0 mm 3 mps 752 mmHg 92%
04:00 -2°C° 0 mm 2 mps 752 mmHg 92%
05:00 -2°C° 0 mm 2 mps 752 mmHg 93%
06:00 -1°C° 0 mm 2 mps 752 mmHg 91%
07:00 -1°C° 0 mm 2 mps 752 mmHg 90%
08:00 +1°C° 0 mm 2 mps 752 mmHg 89%
09:00 +2°C° 0 mm 2 mps 752 mmHg 84%
10:00 +2°C° 0 mm 2 mps 752 mmHg 80%
11:00 +3°C° 0 mm 2 mps 752 mmHg 75%
12:00 +3°C° 0 mm 2 mps 752 mmHg 81%
13:00 +3°C° 0 mm 2 mps 752 mmHg 87%
14:00 +3°C° 0 mm 2 mps 752 mmHg 93%
15:00 +4°C° 0.1 mm 1 mps 751 mmHg 94%
16:00 +3°C° 0.1 mm 1 mps 751 mmHg 96%
17:00 +3°C° 0.1 mm 1 mps 751 mmHg 98%
18:00 +3°C° 0.1 mm 1 mps 751 mmHg 98%
19:00 +3°C° 0.1 mm 1 mps 751 mmHg 98%
20:00 +4°C° 0.1 mm 1 mps 751 mmHg 98%
21:00 +4°C° 0 mm 1 mps 751 mmHg 97%
22:00 +4°C° 0 mm 1 mps 750 mmHg 97%
23:00 +4°C° 0 mm 1 mps 750 mmHg 96%

Day after tomorrow, 22 October, Thursday

Time Temperature Precipitation Wind Pressure Humidity
00:00 +4°C° 0 mm 1 mps 750 mmHg 96%
01:00 +4°C° 0 mm 1 mps 750 mmHg 96%
02:00 +4°C° 0 mm 1 mps 750 mmHg 96%
03:00 +4°C° 0 mm 1 mps 750 mmHg 96%
04:00 +3°C° 0 mm 2 mps 750 mmHg 96%
05:00 +3°C° 0 mm 2 mps 749 mmHg 96%
06:00 +3°C° 0 mm 2 mps 749 mmHg 95%
07:00 +4°C° 0 mm 2 mps 749 mmHg 95%
08:00 +3°C° 0 mm 3 mps 749 mmHg 94%
09:00 +3°C° 0 mm 3 mps 749 mmHg 93%
10:00 +4°C° 0 mm 3 mps 749 mmHg 91%
11:00 +4°C° 0 mm 3 mps 748 mmHg 90%
12:00 +5°C° 0 mm 3 mps 748 mmHg 89%
13:00 +5°C° 0 mm 3 mps 747 mmHg 89%
14:00 +5°C° 0 mm 4 mps 747 mmHg 88%
15:00 +5°C° 0.3 mm 4 mps 746 mmHg 89%
16:00 +5°C° 0.3 mm 4 mps 746 mmHg 91%
17:00 +5°C° 0.3 mm 4 mps 745 mmHg 93%
18:00 +5°C° 0.3 mm 4 mps 745 mmHg 93%
19:00 +5°C° 0.3 mm 4 mps 744 mmHg 94%
20:00 +5°C° 0.3 mm 4 mps 744 mmHg 94%
21:00 +6°C° 0.5 mm 4 mps 744 mmHg 95%
22:00 +6°C° 0.5 mm 4 mps 743 mmHg 95%
23:00 +7°C° 0.5 mm 3 mps 743 mmHg 96%

23 October, Friday

Time Temperature Precipitation Wind Pressure Humidity
00:00 +7°C° 0.2 mm 4 mps 743 mmHg 95%
01:00 +8°C° 0.2 mm 4 mps 743 mmHg 94%
02:00 +10°C° 0.2 mm 4 mps 743 mmHg 93%
03:00 +10°C° 0 mm 4 mps 743 mmHg 93%
04:00 +10°C° 0 mm 4 mps 743 mmHg 92%
05:00 +10°C° 0 mm 4 mps 743 mmHg 92%
06:00 +10°C° 0 mm 4 mps 743 mmHg 91%
07:00 +10°C° 0 mm 4 mps 743 mmHg 91%
08:00 +10°C° 0 mm 4 mps 743 mmHg 90%
09:00 +11°C° 0 mm 4 mps 742 mmHg 89%
10:00 +11°C° 0 mm 4 mps 742 mmHg 87%
11:00 +12°C° 0 mm 5 mps 742 mmHg 86%
12:00 +12°C° 0.4 mm 5 mps 741 mmHg 87%
13:00 +12°C° 0.4 mm 5 mps 741 mmHg 88%
14:00 +12°C° 0.4 mm 5 mps 740 mmHg 89%
15:00 +12°C° 1.5 mm 5 mps 739 mmHg 90%
16:00 +12°C° 1.5 mm 5 mps 738 mmHg 91%
17:00 +10°C° 1.5 mm 5 mps 738 mmHg 92%
18:00 +10°C° 0.5 mm 5 mps 737 mmHg 92%
19:00 +11°C° 0.5 mm 4 mps 737 mmHg 92%
20:00 +11°C° 0.5 mm 4 mps 737 mmHg 92%
21:00 +11°C° 0.1 mm 4 mps 738 mmHg 90%
22:00 +10°C° 0.1 mm 5 mps 738 mmHg 88%
23:00 +10°C° 0.1 mm 5 mps 738 mmHg 86%

24 October, Saturday

Time Temperature Precipitation Wind Pressure Humidity
00:00 +9°C° 0.2 mm 5 mps 738 mmHg 86%
01:00 +9°C° 0.2 mm 5 mps 739 mmHg 86%
02:00 +8°C° 0.2 mm 5 mps 739 mmHg 87%
03:00 +8°C° 0 mm 5 mps 739 mmHg 85%
04:00 +8°C° 0 mm 4 mps 740 mmHg 84%
05:00 +8°C° 0 mm 4 mps 740 mmHg 83%
06:00 +8°C° 0 mm 4 mps 740 mmHg 83%
07:00 +8°C° 0 mm 4 mps 741 mmHg 83%
08:00 +8°C° 0 mm 4 mps 741 mmHg 83%
09:00 +8°C° 0 mm 4 mps 742 mmHg 80%
10:00 +10°C° 0 mm 4 mps 742 mmHg 77%
11:00 +10°C° 0 mm 4 mps 743 mmHg 73%
12:00 +10°C° 0 mm 4 mps 743 mmHg 73%
13:00 +10°C° 0 mm 3 mps 743 mmHg 72%
14:00 +10°C° 0 mm 3 mps 743 mmHg 71%
15:00 +9°C° 0 mm 3 mps 743 mmHg 76%
16:00 +8°C° 0 mm 2 mps 743 mmHg 80%
17:00 +8°C° 0 mm 1 mps 743 mmHg 84%
18:00 +7°C° 0 mm 1 mps 743 mmHg 85%
19:00 +7°C° 0 mm 1 mps 744 mmHg 86%
20:00 +5°C° 0 mm 0 mps 744 mmHg 86%
21:00 +6°C° 0 mm 1 mps 744 mmHg 86%
22:00 +6°C° 0 mm 1 mps 744 mmHg 86%
23:00 +6°C° 0 mm 1 mps 744 mmHg 85%

25 October, Sunday

Time Temperature Precipitation Wind Pressure Humidity
00:00 +6°C° 0 mm 1 mps 744 mmHg 85%
01:00 +6°C° 0 mm 1 mps 744 mmHg 85%
02:00 +6°C° 0 mm 1 mps 743 mmHg 85%
03:00 +6°C° 0 mm 1 mps 743 mmHg 85%
04:00 +6°C° 0 mm 1 mps 744 mmHg 86%
05:00 +6°C° 0 mm 1 mps 744 mmHg 86%
06:00 +6°C° 0.1 mm 1 mps 744 mmHg 87%
07:00 +6°C° 0.1 mm 1 mps 744 mmHg 87%
08:00 +6°C° 0.1 mm 1 mps 744 mmHg 88%
09:00 +6°C° 0 mm 1 mps 744 mmHg 86%
10:00 +5°C° 0 mm 2 mps 744 mmHg 85%
11:00 +5°C° 0 mm 2 mps 745 mmHg 83%
12:00 +5°C° 0 mm 2 mps 745 mmHg 82%
13:00 +6°C° 0 mm 2 mps 745 mmHg 80%
14:00 +6°C° 0 mm 2 mps 745 mmHg 78%
15:00 +4°C° 0 mm 3 mps 746 mmHg 79%
16:00 +4°C° 0 mm 3 mps 746 mmHg 79%
17:00 +3°C° 0 mm 3 mps 746 mmHg 80%
18:00 +2°C° 0 mm 3 mps 747 mmHg 83%
19:00 +1°C° 0 mm 3 mps 747 mmHg 85%
20:00 +1°C° 0 mm 3 mps 747 mmHg 87%
21:00 0°C° 0 mm 3 mps 748 mmHg 88%
22:00 0°C° 0 mm 3 mps 748 mmHg 89%
23:00 -1°C° 0 mm 3 mps 748 mmHg 90%

26 October, Monday

Time Temperature Precipitation Wind Pressure Humidity
00:00 -1°C° 0 mm 3 mps 749 mmHg 92%
01:00 -1°C° 0 mm 2 mps 749 mmHg 93%
02:00 -1°C° 0 mm 2 mps 749 mmHg 95%
03:00 -1°C° 0 mm 2 mps 749 mmHg 94%
04:00 -1°C° 0 mm 3 mps 750 mmHg 93%
05:00 -1°C° 0 mm 3 mps 750 mmHg 92%
06:00 -1°C° 0 mm 3 mps 750 mmHg 91%
07:00 0°C° 0 mm 3 mps 751 mmHg 91%
08:00 0°C° 0 mm 3 mps 751 mmHg 91%
09:00 +1°C° 0 mm 3 mps 751 mmHg 85%
10:00 +2°C° 0 mm 3 mps 752 mmHg 80%
11:00 +4°C° 0 mm 3 mps 752 mmHg 75%
12:00 +4°C° 0 mm 3 mps 752 mmHg 75%
13:00 +4°C° 0 mm 3 mps 752 mmHg 74%
14:00 +4°C° 0 mm 3 mps 752 mmHg 74%
15:00 +4°C° 0 mm 2 mps 752 mmHg 79%
16:00 +3°C° 0 mm 2 mps 752 mmHg 84%
17:00 +3°C° 0 mm 2 mps 752 mmHg 88%
18:00 +2°C° 0 mm 2 mps 752 mmHg 90%
19:00 +2°C° 0 mm 2 mps 752 mmHg 91%
20:00 +2°C° 0 mm 2 mps 752 mmHg 92%
21:00 +2°C° 0 mm 2 mps 752 mmHg 91%
22:00 +3°C° 0 mm 2 mps 752 mmHg 90%
23:00 +3°C° 0 mm 2 mps 752 mmHg 88%
Show more